1535918400.09,8366,20.31,74724.8,5.83,-3.11,-2.55,0,*49
1535918401.3,8367,20.31,74724.5,5.79,-3.11,-2.47,0,*4E
1535918402.53,8368,20.38,74730.0,5.81,-3.15,-2.59,0,*4D
1535918403.76,8369,20.31,74724.0,5.81,-3.23,-2.63,0,*40
1535918404.99,8370,20.31,74726.3,5.81,-3.15,-2.63,0,*4D
1535918406.2,8371,20.31,74724.3,5.83,-3.07,-2.47,0,*4B
1535918407.43,8372,20.31,74728.0,5.81,-3.15,-2.59,0,*46
1535918408.63,8373,20.31,74728.3,5.79,-3.11,-2.47,0,*4B
1535918409.86,8374,20.38,74728.3,5.81,-3.23,-2.59,0,*45
1535918411.08,8375,20.31,74724.8,5.81,-3.23,-2.63,0,*4D
1535918412.29,8376,20.31,74724.8,5.79,-3.15,-2.63,0,*4C
1535918413.5,8377,20.31,74726.0,5.79,-3.15,-2.59,0,*44
1535918414.73,8378,20.31,74724.3,5.81,-3.15,-2.51,0,*44
1535918415.94,8379,20.31,74728.8,5.79,-3.15,-2.59,0,*4A
1535918417.14,8380,20.31,74724.5,5.79,-3.23,-2.63,0,*40
1535918418.35,8381,20.38,74724.8,5.79,-3.35,-2.75,0,*41
1535918419.56,8382,20.31,74724.8,5.79,-3.15,-2.51,0,*46
1535918420.74,8383,20.38,74728.3,5.79,-3.03,-2.39,0,*4E
1535918421.94,8384,20.31,74724.8,5.79,-3.11,-2.59,0,*4C
1535918423.18,8385,20.31,74726.3,5.81,-3.11,-2.51,0,*42
1535918424.41,8386,20.38,74730.3,5.81,-3.03,-2.51,0,*42
1535918425.6,8387,20.31,74728.8,5.81,-2.91,-2.27,0,*48
1535918426.78,8388,20.31,74722.3,5.79,-2.91,-2.23,0,*44
1535918427.96,8389,20.31,74726.0,5.79,-2.99,-2.35,0,*4A
1535918429.17,8390,20.38,74728.3,5.79,-3.11,-2.51,0,*41
1535918430.34,8391,20.31,74726.8,5.79,-2.91,-2.35,0,*4B
1535918431.58,8392,20.31,74726.8,5.81,-3.11,-2.51,0,*44
1535918432.78,8393,20.38,74728.0,5.79,-3.11,-2.47,0,*45
1535918433.99,8394,20.31,74726.3,5.79,-3.11,-2.51,0,*45
1535918435.2,8395,20.31,74726.5,5.79,-3.15,-2.63,0,*41
1535918436.41,8396,20.38,74726.5,5.79,-2.99,-2.47,0,*41
1535918437.64,8397,20.38,74728.8,5.81,-3.11,-2.51,0,*41
1535918438.85,8398,20.31,74724.0,5.79,-3.15,-2.59,0,*45
1535918440.05,8399,20.31,74726.8,5.79,-3.23,-2.63,0,*48
1535918441.26,8400,20.31,74730.5,5.79,-3.15,-2.63,0,*4A
1535918442.46,8401,20.31,74726.5,5.79,-3.15,-2.59,0,*42
1535918443.67,8402,20.38,74728.8,5.79,-3.03,-2.51,0,*4E
1535918444.88,8403,20.31,74726.3,5.77,-2.95,-2.39,0,*41
1535918446.09,8404,20.31,74724.8,5.79,-3.11,-2.51,0,*4B
1535918447.3,8405,20.31,74724.3,5.79,-3.11,-2.51,0,*4A
1535918448.51,8406,20.31,74726.3,5.79,-2.99,-2.47,0,*4F
1535918449.69,8407,20.31,74728.8,5.79,-2.99,-2.35,0,*4B
1535918450.86,8408,20.38,74730.3,5.79,-2.99,-2.39,0,*48
1535918452.07,8409,20.31,74724.8,5.79,-3.15,-2.63,0,*43
1535918453.28,8410,20.31,74728.0,5.79,-3.15,-2.47,0,*4D
1535918454.51,8411,20.38,74728.3,5.81,-3.11,-2.47,0,*4F
1535918455.69,8412,20.31,74728.0,5.79,-2.91,-2.39,0,*4B
1535918456.92,8413,20.31,74728.3,5.77,-3.15,-2.55,0,*43
1535918458.12,8414,20.31,74726.0,5.77,-3.07,-2.27,0,*42
1535918459.3,8415,20.31,74726.0,5.79,-3.03,-2.23,0,*4D
1535918460.48,8416,20.31,74724.8,5.79,-2.99,-2.15,0,*49
1535918461.66,8417,20.31,74724.0,5.79,-3.03,-2.23,0,*4F
1535918462.84,8418,20.31,74724.8,5.79,-3.03,-2.23,0,*40
1535918464.04,8419,20.31,74724.3,5.77,-3.03,-2.19,0,*46
1535918465.22,8420,20.31,74726.5,5.79,-3.11,-2.23,0,*48
1535918466.4,8421,20.31,74724.0,5.79,-2.99,-2.27,0,*4C
1535918467.58,8422,20.31,74724.3,5.79,-2.99,-2.15,0,*4E
1535918468.76,8423,20.31,74724.0,5.79,-2.99,-2.23,0,*4A
1535918469.93,8424,20.31,74726.0,5.79,-3.11,-2.27,0,*48
1535918471.11,8425,20.38,74726.5,5.79,-3.03,-2.35,0,*49
1535918472.31,8426,20.31,74728.0,5.77,-3.15,-2.27,0,*40
1535918473.52,8427,20.31,74724.8,5.77,-3.07,-2.31,0,*45
1535918474.72,8428,20.31,74724.3,5.77,-3.15,-2.27,0,*4E
1535918475.92,8429,20.31,74724.8,5.77,-3.07,-2.19,0,*41
1535918477.13,8430,20.38,74728.0,5.77,-2.95,-2.27,0,*4E
1535918478.33,8431,20.38,74730.3,5.77,-3.07,-2.31,0,*42
1535918479.54,8432,20.31,74728.0,5.77,-2.95,-2.19,0,*41
1535918480.74,8433,20.38,74728.3,5.77,-2.95,-2.19,0,*40
1535918481.95,8434,20.31,74724.5,5.77,-3.03,-2.15,0,*45
1535918483.15,8435,20.31,74724.8,5.77,-3.07,-2.19,0,*4C
1535918484.33,8436,20.31,74724.3,5.79,-2.99,-2.23,0,*4E
1535918485.51,8437,20.31,74726.0,5.75,-3.07,-2.31,0,*46
1535918486.72,8438,20.31,74724.3,5.77,-2.95,-2.15,0,*47
1535918487.89,8439,20.38,74726.3,5.79,-3.11,-2.27,0,*44
1535918489.09,8440,20.31,74724.0,5.77,-3.07,-2.27,0,*43
1535918490.3,8441,20.38,74728.3,5.77,-3.03,-2.31,0,*41
1535918491.48,8442,20.31,74724.8,5.75,-3.07,-2.19,0,*4E
1535918492.68,8443,20.31,74726.8,5.77,-2.95,-2.15,0,*4B
1535918493.88,8444,20.31,74724.3,5.77,-3.03,-2.19,0,*4E
1535918495.09,8445,20.31,74724.0,5.77,-3.03,-2.31,0,*45
1535918496.3,8446,20.31,74724.3,5.77,-3.07,-2.31,0,*42
1535918497.5,8447,20.31,74726.0,5.77,-2.95,-2.15,0,*4F
1535918498.7,8448,20.31,74724.8,5.77,-3.03,-2.27,0,*4F
1535918499.9,8449,20.31,74726.3,5.77,-3.03,-2.27,0,*4E
1535918501.11,8450,20.31,74726.5,5.77,-2.95,-2.15,0,*49
1535918502.31,8451,20.38,74724.5,5.77,-3.03,-2.19,0,*4A
1535918503.49,8452,20.31,74726.5,5.75,-3.11,-2.31,0,*42
1535918504.67,8453,20.31,74724.8,5.75,-3.11,-2.35,0,*47
1535918505.87,8454,20.31,74724.0,5.77,-3.03,-2.19,0,*4F
1535918507.08,8455,20.31,74726.8,5.77,-3.15,-2.19,0,*49
1535918508.28,8456,20.31,74724.3,5.77,-3.07,-2.31,0,*43
1535918509.49,8457,20.31,74724.8,5.77,-3.07,-2.31,0,*42
1535918510.68,8458,20.31,74726.0,5.77,-3.07,-2.27,0,*4A
1535918511.89,8459,20.31,74724.8,5.77,-3.15,-2.31,0,*4F
1535918513.09,8460,20.38,74728.3,5.77,-3.19,-2.43,0,*4C
1535918514.29,8461,20.31,74722.8,5.77,-3.19,-2.43,0,*4D
1535918515.47,8462,20.31,74724.3,5.75,-3.19,-2.43,0,*4C
1535918516.67,8463,20.38,74728.0,5.77,-3.07,-2.39,0,*4D
1535918517.87,8464,20.31,74726.8,5.77,-3.07,-2.31,0,*42
1535918519.08,8465,20.31,74724.8,5.77,-3.15,-2.31,0,*40
1535918520.29,8466,20.38,74726.8,5.77,-3.15,-2.31,0,*43
1535918521.49,8467,20.31,74726.0,5.77,-3.07,-2.31,0,*41
1535918522.69,8468,20.38,74728.3,5.77,-3.15,-2.43,0,*48
1535918523.9,8469,20.31,74726.0,5.77,-3.15,-2.39,0,*44
1535918525.08,8470,20.31,74724.3,5.75,-3.19,-2.35,0,*4E
1535918526.26,8471,20.31,74724.5,5.75,-3.11,-2.35,0,*47
1535918527.44,8472,20.31,74722.3,5.75,-3.07,-2.31,0,*47
1535918528.62,8473,20.31,74724.5,5.75,-3.07,-2.31,0,*46
1535918529.8,8474,20.31,74726.3,5.75,-3.07,-2.19,0,*4B
1535918530.98,8475,20.31,74720.3,5.75,-3.11,-2.23,0,*44
1535918532.16,8476,20.31,74720.5,5.75,-2.99,-2.31,0,*45
1535918533.35,8477,20.31,74722.8,5.75,-3.07,-2.23,0,*41
1535918534.53,8478,20.31,74724.3,5.75,-2.99,-2.23,0,*48
1535918535.71,8479,20.31,74722.8,5.75,-3.11,-2.35,0,*4F
1535918536.91,8480,20.31,74726.0,5.75,-3.19,-2.47,0,*44
1535918538.09,8481,20.31,74726.5,5.75,-3.19,-2.43,0,*41
1535918539.27,8482,20.31,74720.8,5.75,-3.19,-2.31,0,*47
1535918540.45,8483,20.31,74724.5,5.75,-3.11,-2.35,0,*4A
1535918541.63,8484,20.31,74722.5,5.75,-3.19,-2.35,0,*45
1535918542.83,8485,20.31,74720.5,5.77,-3.07,-2.27,0,*4A
1535918544.03,8486,20.31,74724.0,5.77,-3.15,-2.39,0,*45
1535918545.22,8487,20.31,74726.3,5.75,-3.11,-2.31,0,*4A
1535918546.42,8488,20.31,74724.8,5.73,-3.07,-2.31,0,*44
1535918547.6,8489,20.38,74724.8,5.75,-3.07,-2.23,0,*40
1535918548.78,8490,20.31,74724.8,5.75,-3.07,-2.35,0,*4F
1535918549.96,8491,20.38,74726.5,5.75,-3.23,-2.31,0,*4C
1535918551.14,8492,20.31,74724.8,5.75,-3.19,-2.35,0,*42
1535918552.35,8493,20.38,74726.3,5.73,-3.07,-2.23,0,*4D
1535918553.55,8494,20.31,74726.0,5.73,-3.07,-2.31,0,*49
1535918554.76,8495,20.31,74724.8,5.73,-3.11,-2.31,0,*4F
1535918555.96,8496,20.31,74722.3,5.73,-3.11,-2.31,0,*4C
1535918557.17,8497,20.31,74726.3,5.73,-3.07,-2.23,0,*49
1535918558.34,8498,20.31,74724.8,5.71,-2.99,-2.19,0,*4B
1535918559.55,8499,20.31,74724.5,5.73,-2.95,-2.23,0,*4D
1535918560.76,8500,20.31,74720.0,5.73,-3.07,-2.23,0,*46
1535918561.96,8501,20.31,74726.5,5.73,-3.07,-2.23,0,*47
1535918563.14,8502,20.31,74724.0,5.75,-2.99,-2.23,0,*44
1535918564.33,8503,20.38,74724.3,5.75,-3.07,-2.31,0,*40
1535918565.53,8504,20.31,74720.3,5.73,-2.99,-2.19,0,*4D
1535918566.73,8505,20.31,74724.0,5.73,-3.11,-2.35,0,*43
1535918567.94,8506,20.31,74724.8,5.73,-3.19,-2.31,0,*4C
1535918569.11,8507,20.31,74724.8,5.71,-3.03,-2.23,0,*47
1535918570.29,8508,20.31,74722.8,5.75,-2.87,-2.19,0,*48
1535918571.48,8509,20.31,74722.5,5.75,-2.95,-2.19,0,*4A
1535918572.67,8510,20.31,74722.0,5.75,-2.95,-2.23,0,*4B
1535918573.85,8511,20.31,74720.0,5.75,-3.07,-2.23,0,*40
1535918575.03,8512,20.38,74724.5,5.75,-3.07,-2.23,0,*43
1535918576.21,8513,20.31,74724.3,5.75,-3.07,-2.23,0,*42
1535918577.39,8514,20.31,74720.8,5.75,-3.11,-2.35,0,*45
1535918578.57,8515,20.31,74724.3,5.75,-3.11,-2.31,0,*40
1535918579.75,8516,20.31,74726.3,5.75,-3.11,-2.23,0,*40
1535918580.95,8517,20.31,74720.8,5.73,-2.87,-2.19,0,*40
1535918582.21,8518,20.31,74722.5,5.73,-2.75,-2.07,0,*4D
1535918583.42,8519,20.31,74722.3,5.73,-2.95,-2.19,0,*4D
1535918584.6,8520,20.31,74726.5,5.75,-2.95,-2.19,0,*41
1535918585.79,8521,20.31,74724.0,5.75,-2.95,-2.19,0,*40
1535918586.97,8522,20.31,74724.5,5.75,-2.95,-2.19,0,*43
1535918588.18,8523,20.31,74724.3,5.75,-2.87,-2.07,0,*4E
1535918589.36,8524,20.31,74724.0,5.75,-2.95,-2.19,0,*45
1535918590.54,8525,20.31,74720.0,5.75,-2.87,-2.19,0,*47
1535918591.75,8526,20.38,74726.3,5.75,-2.87,-2.07,0,*4B
1535918592.98,8527,20.31,74724.5,5.75,-2.75,-2.07,0,*47
1535918594.21,8528,20.31,74726.5,5.75,-2.75,-2.07,0,*48
1535918595.44,8529,20.31,74722.3,5.77,-2.83,-2.07,0,*42
1535918596.65,8530,20.31,74722.8,5.77,-2.95,-2.19,0,*42
1535918597.83,8531,20.31,74720.8,5.75,-2.95,-2.19,0,*41
1535918599.02,8532,20.31,74724.0,5.75,-2.95,-2.19,0,*42
1535918600.19,8533,20.31,74724.5,5.75,-2.91,-2.19,0,*47
1535918601.4,8534,20.31,74720.8,5.77,-3.07,-2.31,0,*46
1535918602.58,8535,20.31,74724.3,5.75,-3.11,-2.31,0,*42
1535918603.76,8536,20.31,74720.3,5.75,-2.99,-2.23,0,*43
1535918604.95,8537,20.31,74720.5,5.75,-2.95,-2.23,0,*4E
1535918606.14,8538,20.31,74720.5,5.75,-2.95,-2.23,0,*41
1535918607.32,8539,20.31,74720.0,5.75,-2.95,-2.19,0,*49
1535918608.51,8540,20.31,74720.8,5.75,-2.95,-2.19,0,*47
1535918609.7,8541,20.31,74722.0,5.77,-2.91,-2.19,0,*40
1535918610.91,8542,20.31,74720.0,5.77,-2.99,-2.19,0,*4B
1535918612.11,8543,20.31,74722.3,5.75,-2.83,-2.07,0,*4C
1535918613.34,8544,20.31,74718.0,5.77,-2.79,-2.03,0,*48
1535918614.54,8545,20.31,74722.3,5.75,-2.83,-2.07,0,*4A
1535918615.79,8546,20.38,74720.8,5.77,-2.71,-2.03,0,*42
1535918617.0,8547,20.31,74722.3,5.75,-2.87,-2.11,0,*4B
1535918618.2,8548,20.31,74720.5,5.75,-2.83,-2.07,0,*47
1535918619.43,8549,20.31,74720.8,5.77,-2.79,-2.03,0,*45
1535918620.63,8550,20.31,74720.0,5.75,-2.87,-2.11,0,*4D
1535918621.86,8551,20.31,74722.3,5.77,-2.79,-2.07,0,*48
1535918623.07,8552,20.31,74720.0,5.75,-2.83,-2.07,0,*4C
1535918624.31,8553,20.31,74722.0,5.77,-2.71,-1.95,0,*4A
1535918625.54,8554,20.31,74722.8,5.77,-2.83,-2.07,0,*48
1535918626.79,8555,20.31,74722.0,5.77,-2.71,-2.03,0,*40
1535918628.04,8556,20.31,74720.5,5.77,-2.71,-2.03,0,*43
1535918629.27,8557,20.31,74720.0,5.77,-2.79,-2.03,0,*4A
1535918630.48,8558,20.31,74718.8,5.75,-2.87,-2.07,0,*42
1535918631.68,8559,20.31,74722.5,5.75,-2.83,-2.11,0,*40
1535918632.9,8560,20.31,74720.8,5.77,-2.83,-2.03,0,*4B
1535918634.13,8561,20.31,74720.5,5.77,-2.79,-2.07,0,*4B
1535918635.36,8562,20.31,74720.0,5.77,-2.63,-1.79,0,*49
1535918636.61,8563,20.31,74720.5,5.77,-2.67,-1.87,0,*4D
1535918637.84,8564,20.31,74722.3,5.77,-2.63,-1.79,0,*4F
1535918639.07,8565,20.31,74722.5,5.77,-2.63,-1.79,0,*4E
1535918640.32,8566,20.31,74720.3,5.77,-2.67,-1.91,0,*4F
1535918641.56,8567,20.31,74722.0,5.79,-2.63,-1.91,0,*44
1535918642.79,8568,20.38,74726.0,5.79,-2.75,-1.99,0,*44
1535918643.99,8569,20.31,74718.3,5.79,-2.79,-2.03,0,*49
1535918645.22,8570,20.31,74720.3,5.79,-2.67,-1.99,0,*4E
1535918646.47,8571,20.31,74724.0,5.77,-2.71,-1.95,0,*4A
1535918647.71,8572,20.31,74722.8,5.77,-2.67,-1.95,0,*4E
1535918648.94,8573,20.31,74722.5,5.79,-2.75,-1.99,0,*4E
1535918650.15,8574,20.31,74722.0,5.79,-2.79,-2.03,0,*45
1535918651.38,8575,20.31,74722.3,5.83,-2.75,-2.07,0,*49
1535918652.61,8576,20.31,74722.5,5.79,-2.67,-1.87,0,*47
1535918653.83,8577,20.31,74722.0,5.79,-2.67,-1.91,0,*41
1535918655.06,8578,20.31,74722.5,5.79,-2.75,-1.99,0,*45
1535918656.3,8579,20.31,74720.8,5.79,-2.67,-1.99,0,*47
1535918657.52,8580,20.31,74722.3,5.79,-2.67,-2.03,0,*41
1535918658.77,8581,20.31,74720.0,5.81,-2.67,-2.03,0,*47
1535918660.02,8582,20.31,74720.5,5.81,-2.67,-1.91,0,*4C
1535918661.25,8583,20.31,74720.3,5.79,-2.75,-2.03,0,*41
1535918662.5,8584,20.31,74724.8,5.81,-2.75,-2.03,0,*41
1535918663.75,8585,20.38,74724.5,5.81,-2.75,-2.03,0,*40
1535918665.01,8586,20.31,74722.5,5.81,-2.75,-1.99,0,*43
1535918666.24,8587,20.31,74720.8,5.79,-2.75,-1.99,0,*45
1535918667.5,8588,20.31,74724.0,5.81,-2.67,-1.99,0,*4E
1535918668.73,8589,20.31,74718.8,5.79,-2.75,-2.03,0,*4B
1535918669.95,8590,20.31,74720.5,5.81,-2.87,-2.03,0,*49
1535918671.16,8591,20.31,74718.8,5.79,-2.79,-2.03,0,*4E
1535918672.36,8592,20.31,74722.8,5.81,-2.87,-2.15,0,*4C
1535918673.56,8593,20.31,74720.3,5.79,-2.87,-2.11,0,*4E
1535918674.77,8594,20.31,74722.0,5.79,-2.79,-2.11,0,*48
1535918675.99,8595,20.31,74722.5,5.81,-2.87,-2.11,0,*4F
1535918677.22,8596,20.31,74722.3,5.81,-2.79,-2.11,0,*4D
1535918678.44,8597,20.31,74722.5,5.81,-2.91,-2.11,0,*4A
1535918679.62,8598,20.31,74716.5,5.79,-2.91,-2.15,0,*46
1535918680.79,8599,20.31,74720.0,5.79,-2.91,-2.15,0,*47
1535918681.99,8600,20.31,74722.0,5.79,-2.79,-2.11,0,*46
1535918683.17,8601,20.31,74718.5,5.79,-2.91,-2.15,0,*45
1535918684.35,8602,20.31,74722.0,5.79,-2.99,-2.23,0,*4B
1535918685.53,8603,20.31,74720.5,5.79,-2.91,-2.15,0,*47
1535918686.73,8604,20.38,74724.8,5.79,-2.91,-2.11,0,*44
1535918687.92,8605,20.31,74718.3,5.79,-2.91,-2.11,0,*45
1535918689.13,8606,20.31,74718.3,5.79,-2.79,-2.11,0,*40
1535918690.36,8607,20.31,74722.3,5.79,-2.75,-1.99,0,*4E
1535918691.56,8608,20.31,74720.0,5.79,-2.87,-2.11,0,*4F
1535918692.75,8609,20.31,74720.5,5.79,-2.99,-2.23,0,*40
1535918693.93,8610,20.31,74720.5,5.79,-3.03,-2.23,0,*4A
1535918695.1,8611,20.31,74722.5,5.79,-2.91,-2.15,0,*44
1535918696.28,8612,20.31,74720.0,5.79,-2.91,-2.15,0,*47
1535918697.5,8613,20.38,74722.8,5.81,-2.87,-2.11,0,*42
1535918698.7,8614,20.31,74720.5,5.79,-2.91,-2.11,0,*45
1535918699.88,8615,20.31,74716.5,5.79,-2.99,-2.23,0,*4D
1535918701.06,8616,20.31,74722.0,5.79,-2.91,-2.23,0,*46
1535918702.26,8617,20.31,74720.3,5.77,-3.03,-2.19,0,*4A
1535918703.46,8618,20.31,74718.8,5.77,-3.03,-2.19,0,*45
1535918704.66,8619,20.31,74720.5,5.77,-3.03,-2.27,0,*49
1535918705.86,8620,20.31,74718.3,5.77,-3.07,-2.27,0,*47
1535918707.07,8621,20.31,74720.0,5.77,-2.95,-2.19,0,*41
1535918708.27,8622,20.31,74722.5,5.77,-3.03,-2.19,0,*4C
1535918709.47,8623,20.31,74722.0,5.77,-2.91,-2.15,0,*4B
1535918710.67,8624,20.31,74718.8,5.77,-2.95,-2.15,0,*48
1535918711.86,8625,20.31,74720.5,5.75,-2.99,-2.23,0,*42
1535918713.06,8626,20.31,74720.3,5.77,-2.83,-2.15,0,*4D
1535918714.24,8627,20.31,74718.3,5.75,-2.87,-2.23,0,*4F
1535918715.43,8628,20.31,74720.3,5.77,-2.83,-2.15,0,*43
1535918716.64,8629,20.31,74720.0,5.77,-2.95,-2.15,0,*45
1535918717.82,8630,20.31,74720.5,5.75,-2.99,-2.19,0,*4F
1535918719.03,8631,20.31,74718.8,5.77,-2.95,-2.19,0,*40
1535918720.21,8632,20.31,74722.0,5.75,-2.99,-2.19,0,*4D
1535918721.42,8633,20.38,74724.8,5.77,-2.95,-2.15,0,*4E
1535918722.61,8634,20.31,74722.0,5.77,-2.91,-2.15,0,*4D
1535918723.79,8635,20.31,74718.0,5.75,-3.07,-2.19,0,*4C
1535918724.97,8636,20.31,74722.5,5.75,-3.07,-2.35,0,*41
1535918726.15,8637,20.31,74722.3,5.75,-2.99,-2.31,0,*42
1535918727.35,8638,20.31,74720.5,5.77,-2.91,-2.19,0,*4D
1535918728.53,8639,20.31,74716.5,5.75,-3.07,-2.31,0,*4A
1535918729.71,8640,20.31,74722.8,5.75,-3.07,-2.31,0,*44
1535918730.89,8641,20.31,74722.3,5.75,-2.99,-2.19,0,*49
1535918732.07,8642,20.31,74716.8,5.75,-2.99,-2.19,0,*4A
1535918733.25,8643,20.31,74716.3,5.75,-2.99,-2.19,0,*4B
1535918734.44,8644,20.31,74722.0,5.75,-2.95,-2.23,0,*49
1535918735.65,8645,20.31,74722.0,5.77,-2.95,-2.19,0,*43
1535918736.83,8646,20.31,74718.3,5.75,-3.07,-2.31,0,*42
1535918738.01,8647,20.31,74722.8,5.75,-3.07,-2.31,0,*43
1535918739.21,8648,20.31,74722.5,5.75,-2.87,-2.11,0,*47
1535918740.4,8649,20.31,74722.3,5.75,-2.95,-2.19,0,*4D
1535918741.58,8650,20.31,74716.3,5.75,-2.99,-2.19,0,*49
1535918742.76,8651,20.31,74722.3,5.75,-2.95,-2.19,0,*44
1535918743.95,8652,20.31,74724.0,5.75,-2.95,-2.23,0,*4E
1535918745.13,8653,20.31,74722.0,5.75,-2.95,-2.19,0,*46
1535918746.32,8654,20.31,74722.0,5.75,-2.95,-2.19,0,*41
1535918747.53,8655,20.31,74716.5,5.77,-2.95,-2.15,0,*4E
1535918748.7,8656,20.31,74722.8,5.75,-2.87,-2.19,0,*40
1535918749.89,8657,20.31,74722.3,5.75,-2.95,-2.19,0,*42
1535918751.09,8658,20.31,74720.5,5.77,-2.91,-2.15,0,*47
1535918752.27,8659,20.31,74722.5,5.75,-2.99,-2.19,0,*40
1535918753.45,8660,20.31,74718.8,5.75,-2.99,-2.23,0,*43
1535918754.63,8661,20.31,74718.3,5.75,-3.07,-2.31,0,*47
1535918755.83,8662,20.31,74722.8,5.77,-3.03,-2.35,0,*46
1535918757.01,8663,20.31,74720.5,5.75,-3.07,-2.23,0,*46
1535918758.22,8664,20.31,74716.8,5.73,-3.11,-2.31,0,*43
1535918759.4,8665,20.31,74722.0,5.71,-3.15,-2.35,0,*40
1535918760.6,8666,20.31,74720.0,5.73,-3.07,-2.23,0,*45
1535918761.81,8667,20.31,74722.3,5.73,-2.99,-2.31,0,*41
1535918763.01,8668,20.31,74718.3,5.73,-3.07,-2.23,0,*4B
1535918764.22,8669,20.31,74720.0,5.73,-3.11,-2.35,0,*4A
1535918765.39,8670,20.31,74718.0,5.71,-3.15,-2.35,0,*44
1535918766.6,8671,20.31,74720.0,5.73,-3.11,-2.31,0,*47
1535918767.8,8672,20.31,74718.0,5.73,-3.11,-2.35,0,*40
1535918769.01,8673,20.31,74720.5,5.73,-2.99,-2.35,0,*40
1535918770.21,8674,20.31,74720.0,5.73,-2.99,-2.19,0,*49
1535918771.38,8675,20.31,74722.8,5.71,-3.03,-2.27,0,*45
1535918772.55,8676,20.31,74722.0,5.71,-3.11,-2.27,0,*45
1535918773.76,8677,20.31,74724.0,5.73,-3.11,-2.23,0,*42
1535918774.96,8678,20.31,74720.5,5.73,-3.07,-2.23,0,*4A
1535918776.17,8679,20.31,74722.0,5.73,-3.19,-2.35,0,*43
1535918777.34,8680,20.31,74722.0,5.71,-3.15,-2.39,0,*47
1535918778.54,8681,20.31,74720.3,5.73,-3.11,-2.43,0,*4D
1535918779.75,8682,20.31,74716.3,5.73,-3.11,-2.31,0,*4B
1535918780.93,8683,20.31,74720.8,5.71,-3.11,-2.35,0,*4C
1535918782.1,8684,20.31,74722.0,5.71,-3.03,-2.27,0,*4B
1535918783.28,8685,20.31,74718.3,5.71,-3.11,-2.35,0,*4A
1535918784.45,8686,20.31,74722.3,5.71,-3.11,-2.27,0,*4A
1535918785.65,8687,20.31,74720.8,5.69,-3.15,-2.35,0,*45
1535918786.85,8688,20.31,74722.8,5.69,-3.11,-2.27,0,*4D
1535918788.06,8689,20.31,74720.5,5.69,-3.15,-2.35,0,*4B
1535918789.26,8690,20.31,74716.8,5.69,-3.11,-2.27,0,*44
1535918790.45,8691,20.31,74722.0,5.69,-3.03,-2.27,0,*46
1535918791.66,8692,20.31,74722.3,5.69,-3.11,-2.35,0,*45
1535918792.86,8693,20.31,74720.3,5.69,-3.11,-2.35,0,*44
1535918794.06,8694,20.31,74722.5,5.69,-3.15,-2.39,0,*4B
1535918795.24,8695,20.31,74720.0,5.71,-2.99,-2.23,0,*4D
1535918796.42,8696,20.31,74720.0,5.71,-2.91,-2.23,0,*46
1535918797.62,8697,20.31,74720.5,5.69,-3.11,-2.27,0,*43
1535918798.82,8698,20.31,74718.3,5.69,-3.11,-2.39,0,*43
1535918800.02,8699,20.31,74718.3,5.69,-3.11,-2.39,0,*42
1535918801.22,8700,20.31,74720.0,5.69,-3.15,-2.27,0,*48
1535918802.43,8701,20.31,74720.3,5.69,-3.15,-2.35,0,*4A
1535918803.61,8702,20.31,74718.0,5.67,-3.15,-2.39,0,*4B
1535918804.81,8703,20.31,74720.8,5.69,-3.11,-2.35,0,*4C
1535918806.02,8704,20.31,74716.3,5.67,-3.27,-2.51,0,*42
1535918807.21,8705,20.31,74720.0,5.67,-3.15,-2.35,0,*40
1535918808.39,8706,20.31,74720.3,5.67,-3.15,-2.39,0,*4F
1535918809.57,8707,20.31,74722.3,5.67,-3.15,-2.39,0,*4E
1535918810.75,8708,20.31,74724.5,5.67,-3.15,-2.43,0,*4C
1535918811.95,8709,20.31,74718.3,5.69,-2.91,-2.23,0,*48
1535918813.13,8710,20.31,74722.0,5.67,-3.07,-2.31,0,*43
1535918814.31,8711,20.31,74718.0,5.67,-3.15,-2.39,0,*49
1535918815.51,8712,20.31,74716.0,5.69,-3.11,-2.35,0,*4C
1535918816.7,8713,20.31,74720.0,5.67,-2.95,-2.27,0,*4D
1535918817.87,8714,20.31,74718.3,5.67,-3.03,-2.27,0,*44
1535918819.06,8715,20.31,74718.0,5.67,-2.95,-2.19,0,*46
1535918820.25,8716,20.31,74720.0,5.69,-2.91,-2.15,0,*43
1535918821.44,8717,20.31,74720.3,5.67,-2.95,-2.27,0,*49
1535918822.63,8718,20.31,74718.0,5.69,-2.91,-2.15,0,*4D
1535918823.81,8719,20.31,74720.5,5.67,-3.03,-2.27,0,*49
1535918824.99,8720,20.31,74722.0,5.67,-3.03,-2.31,0,*44
1535918826.17,8721,20.31,74722.5,5.67,-3.15,-2.39,0,*4A
1535918827.38,8722,20.31,74722.3,5.69,-3.15,-2.35,0,*4B
1535918828.55,8723,20.31,74720.5,5.67,-3.03,-2.27,0,*40
1535918829.73,8724,20.31,74720.5,5.67,-3.07,-2.27,0,*43
1535918830.9,8725,20.31,74720.8,5.67,-3.07,-2.27,0,*42
1535918832.08,8726,20.31,74720.0,5.67,-3.07,-2.31,0,*46
1535918833.26,8727,20.31,74720.5,5.67,-3.07,-2.27,0,*40
1535918834.44,8728,20.31,74722.3,5.67,-2.95,-2.27,0,*45
1535918835.62,8729,20.31,74722.0,5.67,-2.95,-2.27,0,*44
1535918836.81,8730,20.31,74720.8,5.67,-2.95,-2.19,0,*41
1535918837.98,8731,20.31,74720.5,5.67,-3.03,-2.19,0,*4E
1535918839.17,8732,20.31,74718.8,5.67,-3.15,-2.31,0,*40
1535918840.34,8733,20.31,74718.3,5.67,-3.07,-2.27,0,*45
1535918841.53,8734,20.31,74718.5,5.67,-3.07,-2.31,0,*45
1535918842.7,8735,20.31,74720.8,5.67,-3.03,-2.27,0,*47
1535918843.88,8736,20.31,74720.3,5.67,-2.91,-2.19,0,*43
1535918845.06,8737,20.31,74720.3,5.63,-3.07,-2.31,0,*42
1535918846.24,8738,20.31,74720.0,5.63,-3.11,-2.35,0,*4E
1535918847.42,8739,20.31,74722.8,5.63,-3.07,-2.35,0,*48
1535918848.6,8740,20.31,74718.5,5.63,-3.19,-2.35,0,*49
1535918849.78,8741,20.31,74720.8,5.63,-3.07,-2.31,0,*43
1535918850.96,8742,20.31,74722.8,5.63,-3.07,-2.31,0,*40
1535918852.14,8743,20.31,74720.0,5.63,-3.11,-2.31,0,*46
1535918853.32,8744,20.31,74722.0,5.63,-3.19,-2.35,0,*4D
1535918854.51,8745,20.31,74718.0,5.67,-3.11,-2.31,0,*44
1535918855.68,8746,20.31,74722.0,5.67,-3.03,-2.27,0,*43
1535918856.86,8747,20.31,74718.8,5.63,-3.07,-2.31,0,*45
1535918858.05,8748,20.31,74716.0,5.63,-3.07,-2.31,0,*4A
1535918859.22,8749,20.31,74720.5,5.63,-3.07,-2.35,0,*4F
1535918860.41,8750,20.31,74718.3,5.63,-3.11,-2.31,0,*44
1535918861.59,8751,20.38,74720.8,5.63,-3.11,-2.35,0,*41
1535918862.77,8752,20.31,74718.5,5.63,-3.11,-2.31,0,*46
1535918863.95,8753,20.31,74722.3,5.63,-3.19,-2.31,0,*4F
1535918865.16,8754,20.31,74722.8,5.61,-3.07,-2.35,0,*41
1535918866.34,8755,20.31,74722.0,5.63,-3.11,-2.31,0,*41
1535918867.52,8756,20.31,74716.5,5.63,-3.11,-2.31,0,*42
1535918868.7,8757,20.31,74718.5,5.63,-3.07,-2.31,0,*44
1535918869.89,8758,20.31,74718.0,5.63,-2.99,-2.31,0,*4D
1535918871.09,8759,20.38,74726.0,5.61,-3.19,-2.35,0,*43
1535918872.29,8760,20.31,74722.0,5.61,-3.07,-2.35,0,*46
1535918873.49,8761,20.31,74718.3,5.61,-3.19,-2.35,0,*48
1535918874.7,8762,20.31,74718.3,5.61,-3.19,-2.35,0,*4B
1535918875.93,8763,20.31,74722.5,5.61,-3.19,-2.47,0,*4F
1535918877.13,8764,20.31,74718.5,5.61,-3.19,-2.35,0,*4D
1535918878.33,8765,20.31,74720.5,5.61,-3.19,-2.43,0,*4D
1535918879.53,8766,20.31,74720.3,5.61,-3.07,-2.31,0,*44
1535918880.72,8767,20.31,74722.0,5.63,-3.11,-2.31,0,*40
1535918881.92,8768,20.31,74720.0,5.61,-3.19,-2.35,0,*41
1535918883.12,8769,20.31,74720.5,5.61,-3.19,-2.43,0,*41
1535918884.32,8770,20.31,74716.5,5.61,-3.11,-2.35,0,*40
1535918885.53,8771,20.31,74718.3,5.61,-2.99,-2.31,0,*44
1535918886.73,8772,20.31,74722.8,5.61,-3.07,-2.35,0,*45
1535918887.93,8773,20.31,74724.8,5.61,-3.07,-2.35,0,*44
1535918889.12,8774,20.31,74720.5,5.59,-3.15,-2.35,0,*4B
1535918890.3,8775,20.31,74718.8,5.59,-3.23,-2.39,0,*43
1535918891.48,8776,20.31,74722.8,5.59,-3.15,-2.39,0,*45
1535918892.67,8777,20.31,74720.8,5.59,-3.15,-2.35,0,*48
1535918893.85,8778,20.31,74718.5,5.59,-2.99,-2.35,0,*42
1535918895.04,8779,20.31,74720.0,5.59,-2.99,-2.31,0,*47
1535918896.24,8780,20.31,74722.3,5.57,-2.99,-2.35,0,*4B
1535918897.42,8781,20.31,74720.5,5.59,-3.11,-2.27,0,*46
1535918898.6,8782,20.31,74722.8,5.59,-3.03,-2.27,0,*46
1535918899.78,8783,20.31,74722.8,5.59,-3.11,-2.27,0,*44
1535918900.96,8784,20.31,74718.5,5.59,-3.11,-2.35,0,*40
1535918902.17,8785,20.31,74718.8,5.57,-3.03,-2.35,0,*4C
1535918903.35,8786,20.31,74722.0,5.59,-3.03,-2.35,0,*41
1535918904.56,8787,20.31,74720.5,5.59,-3.15,-2.47,0,*42
1535918905.77,8788,20.31,74718.5,5.57,-3.15,-2.39,0,*4A
1535918906.96,8789,20.31,74722.3,5.59,-3.15,-2.35,0,*49
1535918908.16,8790,20.31,74722.3,5.57,-3.11,-2.35,0,*4B
1535918909.37,8791,20.31,74722.8,5.57,-3.11,-2.39,0,*46
1535918910.55,8792,20.31,74718.0,5.59,-3.23,-2.35,0,*46
1535918911.76,8793,20.31,74720.0,5.57,-3.11,-2.35,0,*48
1535918912.94,8794,20.31,74720.0,5.59,-3.15,-2.39,0,*49